Time,TemperatureF,DewpointF,PressureIn,WindDirection,WindDirectionDegrees,WindSpeedMPH,WindSpeedGustMPH,Humidity,HourlyPrecipIn,Conditions,Clouds,dailyrainin,SoftwareType,DateUTC
2013-01-20 00:10:00,38.1,31.0,29.59,ENE,70,6.0,7.0,75,0.00,,,0.00,weatherlink.com 1.10,2013-01-20 00:10:00,
2013-01-20 00:25:00,38.1,31.0,29.59,ENE,72,5.0,9.0,76,0.00,,,0.00,weatherlink.com 1.10,2013-01-20 00:25:00,
2013-01-20 00:40:00,38.0,31.0,29.59,East,99,1.0,9.0,75,0.00,,,0.00,weatherlink.com 1.10,2013-01-20 00:40:00,
2013-01-20 00:55:00,37.9,30.0,29.58,East,98,3.0,8.0,74,0.00,,,0.00,weatherlink.com 1.10,2013-01-20 00:55:00,
2013-01-20 01:10:00,38.1,30.0,29.57,ENE,66,5.0,8.0,72,0.00,,,0.00,weatherlink.com 1.10,2013-01-20 01:10:00,
2013-01-20 01:25:00,38.2,31.0,29.57,East,80,5.0,7.0,74,0.00,,,0.00,weatherlink.com 1.10,2013-01-20 01:25:00,
2013-01-20 01:40:00,38.2,31.0,29.57,East,92,2.0,8.0,76,0.00,,,0.00,weatherlink.com 1.10,2013-01-20 01:40:00,
2013-01-20 01:55:00,38.3,31.0,29.57,East,81,3.0,8.0,75,0.00,,,0.00,weatherlink.com 1.10,2013-01-20 01:55:00,
2013-01-20 02:10:00,38.3,31.0,29.57,East,82,5.0,10.0,75,0.00,,,0.00,weatherlink.com 1.10,2013-01-20 02:10:00,
2013-01-20 02:25:00,38.2,32.0,29.57,NE,44,8.0,13.0,77,0.00,,,0.00,weatherlink.com 1.10,2013-01-20 02:25:00,
2013-01-20 02:40:00,38.1,32.0,29.56,ENE,74,4.0,9.0,77,0.00,,,0.00,weatherlink.com 1.10,2013-01-20 02:40:00,
2013-01-20 03:10:00,38.0,30.0,29.56,NNE,33,4.0,12.0,72,0.00,,,0.00,weatherlink.com 1.10,2013-01-20 03:10:00,
2013-01-20 03:25:00,38.1,30.0,29.57,ENE,74,3.0,10.0,73,0.00,,,0.00,weatherlink.com 1.10,2013-01-20 03:25:00,
2013-01-20 03:40:00,38.0,30.0,29.57,NE,37,3.0,8.0,72,0.00,,,0.00,weatherlink.com 1.10,2013-01-20 03:40:00,
2013-01-20 03:55:00,38.0,29.0,29.57,ENE,68,7.0,8.0,71,0.00,,,0.00,weatherlink.com 1.10,2013-01-20 03:55:00,
2013-01-20 04:10:00,38.2,30.0,29.56,NE,44,3.0,12.0,71,0.00,,,0.00,weatherlink.com 1.10,2013-01-20 04:10:00,
2013-01-20 04:25:00,38.1,30.0,29.56,ENE,70,4.0,13.0,73,0.00,,,0.00,weatherlink.com 1.10,2013-01-20 04:25:00,
2013-01-20 04:40:00,38.3,30.0,29.56,NE,49,2.0,9.0,72,0.00,,,0.00,weatherlink.com 1.10,2013-01-20 04:40:00,
2013-01-20 04:55:00,38.3,30.0,29.55,NE,39,7.0,11.0,71,0.00,,,0.00,weatherlink.com 1.10,2013-01-20 04:55:00,
2013-01-20 05:10:00,38.3,30.0,29.55,ENE,70,6.0,8.0,71,0.00,,,0.00,weatherlink.com 1.10,2013-01-20 05:10:00,
2013-01-20 05:25:00,38.4,29.0,29.55,ENE,60,9.0,16.0,70,0.00,,,0.00,weatherlink.com 1.10,2013-01-20 05:25:00,
2013-01-20 05:40:00,38.4,30.0,29.55,East,99,3.0,8.0,71,0.00,,,0.00,weatherlink.com 1.10,2013-01-20 05:40:00,
2013-01-20 05:55:00,38.4,30.0,29.55,East,95,7.0,11.0,71,0.00,,,0.00,weatherlink.com 1.10,2013-01-20 05:55:00,
2013-01-20 06:10:00,38.3,29.0,29.54,ENE,68,1.0,9.0,69,0.00,,,0.00,weatherlink.com 1.10,2013-01-20 06:10:00,
2013-01-20 06:25:00,38.2,29.0,29.55,South,169,3.0,7.0,70,0.00,,,0.00,weatherlink.com 1.10,2013-01-20 06:25:00,
2013-01-20 06:40:00,38.1,29.0,29.54,ENE,63,3.0,7.0,70,0.00,,,0.00,weatherlink.com 1.10,2013-01-20 06:40:00,
2013-01-20 06:55:00,38.1,30.0,29.54,ENE,72,2.0,6.0,72,0.00,,,0.00,weatherlink.com 1.10,2013-01-20 06:55:00,
2013-01-20 07:10:00,38.1,30.0,29.54,ENE,76,1.0,7.0,72,0.00,,,0.00,weatherlink.com 1.10,2013-01-20 07:10:00,
2013-01-20 07:25:00,38.1,30.0,29.53,ENE,68,5.0,7.0,72,0.00,,,0.00,weatherlink.com 1.10,2013-01-20 07:25:00,
2013-01-20 07:40:00,38.0,30.0,29.53,ENE,63,3.0,6.0,74,0.00,,,0.00,weatherlink.com 1.10,2013-01-20 07:40:00,
2013-01-20 07:55:00,38.1,30.0,29.52,SSW,210,2.0,7.0,73,0.00,,,0.00,weatherlink.com 1.10,2013-01-20 07:55:00,
2013-01-20 08:10:00,38.2,30.0,29.52,WNW,284,1.0,7.0,73,0.00,,,0.00,weatherlink.com 1.10,2013-01-20 08:10:00,
2013-01-20 08:25:00,38.1,29.0,29.52,ENE,74,5.0,10.0,70,0.00,,,0.00,weatherlink.com 1.10,2013-01-20 08:25:00,
2013-01-20 08:40:00,38.2,30.0,29.51,East,81,4.0,10.0,73,0.00,,,0.00,weatherlink.com 1.10,2013-01-20 08:40:00,
2013-01-20 08:55:00,38.3,30.0,29.51,ENE,64,6.0,10.0,73,0.00,,,0.00,weatherlink.com 1.10,2013-01-20 08:55:00,
2013-01-20 09:10:00,38.4,31.0,29.51,ENE,70,4.0,14.0,74,0.00,,,0.00,weatherlink.com 1.10,2013-01-20 09:10:00,
2013-01-20 09:27:00,38.4,31.0,29.50,NE,56,7.0,9.0,75,0.00,,,0.00,weatherlink.com 1.10,2013-01-20 09:27:00,
2013-01-20 09:41:00,38.3,31.0,29.50,ENE,62,2.0,9.0,74,0.00,,,0.00,weatherlink.com 1.10,2013-01-20 09:41:00,
2013-01-20 09:56:00,38.3,31.0,29.50,NE,41,2.0,9.0,76,0.00,,,0.00,weatherlink.com 1.10,2013-01-20 09:56:00,
2013-01-20 10:11:00,38.4,31.0,29.50,ENE,75,2.0,10.0,74,0.00,,,0.00,weatherlink.com 1.10,2013-01-20 10:11:00,
2013-01-20 10:26:00,38.4,30.0,29.50,NE,54,8.0,12.0,73,0.00,,,0.00,weatherlink.com 1.10,2013-01-20 10:26:00,
2013-01-20 10:41:00,38.5,29.0,29.50,ENE,74,6.0,10.0,69,0.00,,,0.00,weatherlink.com 1.10,2013-01-20 10:41:00,
2013-01-20 10:56:00,38.4,29.0,29.50,NNE,31,5.0,9.0,70,0.00,,,0.00,weatherlink.com 1.10,2013-01-20 10:56:00,
2013-01-20 11:11:00,38.4,29.0,29.50,ENE,68,7.0,10.0,68,0.00,,,0.00,weatherlink.com 1.10,2013-01-20 11:11:00,
2013-01-20 11:26:00,38.1,30.0,29.50,ENE,76,1.0,9.0,73,0.00,,,0.00,weatherlink.com 1.10,2013-01-20 11:26:00,
2013-01-20 11:41:00,37.7,30.0,29.49,ENE,64,6.0,8.0,75,0.00,,,0.00,weatherlink.com 1.10,2013-01-20 11:41:00,
2013-01-20 11:56:00,37.7,31.0,29.49,SE,136,1.0,7.0,76,0.00,,,0.00,weatherlink.com 1.10,2013-01-20 11:56:00,
2013-01-20 12:11:00,37.8,31.0,29.48,SW,218,3.0,9.0,75,0.00,,,0.00,weatherlink.com 1.10,2013-01-20 12:11:00,
2013-01-20 12:26:00,37.3,31.0,29.48,SSW,195,1.0,9.0,78,0.00,,,0.00,weatherlink.com 1.10,2013-01-20 12:26:00,
2013-01-20 12:41:00,37.7,30.0,29.47,East,99,1.0,10.0,74,0.00,,,0.00,weatherlink.com 1.10,2013-01-20 12:41:00,
2013-01-20 12:56:00,38.0,31.0,29.46,East,79,4.0,6.0,75,0.00,,,0.00,weatherlink.com 1.10,2013-01-20 12:56:00,
2013-01-20 13:11:00,38.0,30.0,29.45,ENE,60,4.0,10.0,73,0.00,,,0.00,weatherlink.com 1.10,2013-01-20 13:11:00,
2013-01-20 13:26:00,37.8,30.0,29.45,ENE,65,4.0,9.0,74,0.00,,,0.00,weatherlink.com 1.10,2013-01-20 13:26:00,
2013-01-20 13:41:00,37.7,31.0,29.45,North,356,2.0,7.0,78,0.00,,,0.00,weatherlink.com 1.10,2013-01-20 13:41:00,
2013-01-20 13:56:00,37.4,32.0,29.44,ENE,77,4.0,5.0,80,0.00,,,0.00,weatherlink.com 1.10,2013-01-20 13:56:00,
2013-01-20 14:11:00,37.7,30.0,29.44,East,79,5.0,11.0,75,0.00,,,0.00,weatherlink.com 1.10,2013-01-20 14:11:00,
2013-01-20 14:26:00,37.3,31.0,29.43,ENE,64,3.0,6.0,78,0.00,,,0.00,weatherlink.com 1.10,2013-01-20 14:26:00,
2013-01-20 14:41:00,37.8,31.0,29.43,ENE,77,4.0,9.0,75,0.00,,,0.00,weatherlink.com 1.10,2013-01-20 14:41:00,
2013-01-20 14:56:00,38.3,30.0,29.42,ENE,72,6.0,8.0,73,0.00,,,0.00,weatherlink.com 1.10,2013-01-20 14:56:00,
2013-01-20 15:11:00,37.7,31.0,29.43,NE,41,2.0,6.0,78,0.00,,,0.00,weatherlink.com 1.10,2013-01-20 15:11:00,
2013-01-20 15:26:00,37.4,32.0,29.42,East,83,1.0,7.0,80,0.00,,,0.00,weatherlink.com 1.10,2013-01-20 15:26:00,
2013-01-20 15:41:00,37.1,31.0,29.42,SE,136,2.0,11.0,80,0.00,,,0.00,weatherlink.com 1.10,2013-01-20 15:41:00,
2013-01-20 15:56:00,37.6,32.0,29.41,NE,56,2.0,6.0,80,0.00,,,0.00,weatherlink.com 1.10,2013-01-20 15:56:00,
2013-01-20 16:11:00,37.7,32.0,29.41,SSE,162,1.0,7.0,81,0.00,,,0.00,weatherlink.com 1.10,2013-01-20 16:11:00,
2013-01-20 16:26:00,38.0,32.0,29.41,East,83,10.0,11.0,80,0.00,,,0.00,weatherlink.com 1.10,2013-01-20 16:26:00,
2013-01-20 16:41:00,38.3,32.0,29.41,ENE,60,3.0,11.0,78,0.00,,,0.00,weatherlink.com 1.10,2013-01-20 16:41:00,
2013-01-20 16:56:00,38.3,31.0,29.41,South,174,4.0,15.0,76,0.00,,,0.00,weatherlink.com 1.10,2013-01-20 16:56:00,
2013-01-20 17:11:00,38.4,32.0,29.41,SE,134,7.0,14.0,78,0.00,,,0.00,weatherlink.com 1.10,2013-01-20 17:11:00,
2013-01-20 17:26:00,38.3,32.0,29.41,ENE,70,6.0,12.0,78,0.00,,,0.00,weatherlink.com 1.10,2013-01-20 17:26:00,
2013-01-20 17:41:00,38.3,32.0,29.41,NE,50,6.0,11.0,77,0.00,,,0.00,weatherlink.com 1.10,2013-01-20 17:41:00,
2013-01-20 17:56:00,38.4,31.0,29.41,ENE,75,5.0,13.0,76,0.00,,,0.00,weatherlink.com 1.10,2013-01-20 17:56:00,
2013-01-20 18:11:00,38.3,32.0,29.40,ENE,64,3.0,9.0,77,0.00,,,0.00,weatherlink.com 1.10,2013-01-20 18:11:00,
2013-01-20 18:26:00,38.4,31.0,29.40,ESE,103,6.0,10.0,75,0.00,,,0.00,weatherlink.com 1.10,2013-01-20 18:26:00,
2013-01-20 18:42:00,38.4,31.0,29.40,East,83,3.0,9.0,76,0.00,,,0.00,weatherlink.com 1.10,2013-01-20 18:42:00,
2013-01-20 18:57:00,38.4,32.0,29.40,ENE,76,2.0,9.0,77,0.00,,,0.00,weatherlink.com 1.10,2013-01-20 18:57:00,
2013-01-20 19:12:00,38.4,32.0,29.40,ENE,65,4.0,11.0,77,0.00,,,0.00,weatherlink.com 1.10,2013-01-20 19:12:00,
2013-01-20 19:27:00,38.5,32.0,29.40,SSE,155,2.0,12.0,77,0.00,,,0.00,weatherlink.com 1.10,2013-01-20 19:27:00,
2013-01-20 19:42:00,38.4,31.0,29.40,ENE,67,9.0,13.0,75,0.00,,,0.00,weatherlink.com 1.10,2013-01-20 19:42:00,
2013-01-20 19:57:00,38.5,32.0,29.40,ENE,66,11.0,11.0,77,0.00,,,0.00,weatherlink.com 1.10,2013-01-20 19:57:00,
2013-01-20 20:12:00,38.6,32.0,29.40,ENE,60,1.0,10.0,76,0.00,,,0.00,weatherlink.com 1.10,2013-01-20 20:12:00,
2013-01-20 20:27:00,38.7,31.0,29.40,ENE,70,5.0,14.0,75,0.00,,,0.00,weatherlink.com 1.10,2013-01-20 20:27:00,
2013-01-20 20:42:00,38.7,31.0,29.40,East,84,5.0,11.0,75,0.00,,,0.00,weatherlink.com 1.10,2013-01-20 20:42:00,
2013-01-20 20:57:00,38.7,31.0,29.40,NE,54,8.0,12.0,75,0.00,,,0.00,weatherlink.com 1.10,2013-01-20 20:57:00,
2013-01-20 21:12:00,38.8,32.0,29.40,East,82,6.0,13.0,76,0.00,,,0.00,weatherlink.com 1.10,2013-01-20 21:12:00,
2013-01-20 21:27:00,38.8,32.0,29.40,ENE,78,1.0,10.0,76,0.00,,,0.00,weatherlink.com 1.10,2013-01-20 21:27:00,
2013-01-20 21:42:00,38.6,31.0,29.39,ENE,75,10.0,13.0,75,0.00,,,0.00,weatherlink.com 1.10,2013-01-20 21:42:00,
2013-01-20 21:57:00,38.6,31.0,29.39,ENE,78,8.0,11.0,74,0.00,,,0.00,weatherlink.com 1.10,2013-01-20 21:57:00,
2013-01-20 22:12:00,38.7,31.0,29.39,ENE,71,8.0,11.0,74,0.00,,,0.00,weatherlink.com 1.10,2013-01-20 22:12:00,
2013-01-20 22:27:00,38.7,31.0,29.40,ENE,64,4.0,14.0,75,0.00,,,0.00,weatherlink.com 1.10,2013-01-20 22:27:00,
2013-01-20 22:42:00,38.6,31.0,29.40,ENE,71,7.0,12.0,75,0.00,,,0.00,weatherlink.com 1.10,2013-01-20 22:42:00,
2013-01-20 22:57:00,38.5,31.0,29.39,NE,46,4.0,9.0,75,0.00,,,0.00,weatherlink.com 1.10,2013-01-20 22:57:00,
2013-01-20 23:12:00,38.6,31.0,29.40,East,92,5.0,10.0,74,0.00,,,0.00,weatherlink.com 1.10,2013-01-20 23:12:00,
2013-01-20 23:42:00,38.7,31.0,29.39,East,81,5.0,9.0,74,0.00,,,0.00,weatherlink.com 1.10,2013-01-20 23:42:00,
2013-01-20 23:57:00,38.7,31.0,29.39,NE,56,7.0,10.0,74,0.00,,,0.00,weatherlink.com 1.10,2013-01-20 23:57:00,